Theta_e
339 340 341 342 341 341 341 341 339 338 337 334 334 331 329 328 329 330 329 329 329 330 330 328 326 325 327
343 333 335 338 338 338 337 337 334 334 335 334 332 333 331 330 330 330 329 329 329 329 328 326 325 324 325
342 338 332 333 334 334 334 331 331 338 338 336 331 332 332 333 333 333 333 333 331 330 327 325 323 329 327
340 342 342 342 342 341 340 340 340 338 338 336 329 327 330 330 331 332 333 333 330 334 334 327 331 330 329
341 342 342 342 342 342 340 340 339 338 338 337 338 336 337 326 335 333 334 334 333 334 333 333 332 332 331
342 341 341 341 341 341 340 340 339 338 337 336 336 337 336 335 334 334 335 335 333 333 333 332 332 332 332
341 341 341 341 340 341 341 340 339 338 337 336 335 335 335 335 334 333 331 329 329 329 329 329 329 330 330
340 341 340 341 341 341 341 341 339 338 338 337 334 332 332 333 333 334 333 330 329 329 329 329 327 327 328
340 340 341 341 340 340 340 341 340 339 338 337 333 331 332 332 332 331 332 332 331 329 327 328 328 329 329
339 339 340 340 339 339 339 339 339 339 339 339 336 334 335 335 332 330 330 329 328 328 328 329 328 328 328
337 337 335 330 327 326 327 330 333 337 338 338 338 338 337 336 335 335 330 330 330 330 329 330 330 329 328
325 324 323 320 319 320 321 323 326 330 335 337 338 339 338 337 335 334 331 329 328 327 326 326 328 329 330
318 318 318 317 319 321 323 322 325 327 330 334 335 337 337 334 332 329 327 326 324 327 324 323 324 326 326
317 317 318 319 322 323 320 318 319 324 329 332 333 335 334 331 328 328 327 322 326 327 322 321 317 319 323
315 316 317 320 320 317 316 317 315 316 319 325 329 329 327 328 325 325 325 324 322 325 324 320 315 313 318
313 314 316 315 315 318 318 313 310 311 313 315 317 319 319 319 319 319 318 322 321 319 322 322 323 320 313
Wind_Speed
6 7 7 5 5 4 4 6 6 6 6 5 4 4 3 3 3 3 3 3 3 3 3 3 1 2 7
9 6 6 5 5 5 4 4 4 4 5 5 4 5 3 2 1 1 1 0 1 1 2 2 1 6 6
7 7 5 5 4 5 6 5 5 5 6 6 3 2 3 3 3 3 3 3 3 4 2 1 6 3 5
6 7 7 5 6 5 5 5 5 5 4 4 2 4 4 4 5 5 5 4 6 3 2 5 3 4 4
7 5 4 4 4 4 6 5 4 3 4 5 4 4 5 5 5 5 4 4 4 4 3 4 4 5 4
6 6 5 5 5 5 6 6 5 4 4 4 3 3 3 3 3 3 3 3 5 5 5 6 6 5 4
9 6 6 6 5 6 6 6 6 5 5 4 4 4 4 3 5 4 4 3 3 4 5 6 6 6 7
9 9 7 6 6 6 6 6 9 7 6 5 4 4 5 5 4 5 4 4 4 4 6 7 8 7 8
11 9 7 6 6 6 6 8 9 8 8 8 6 5 6 6 5 5 5 5 5 5 8 7 7 9 8
10 8 7 6 6 6 6 6 9 10 11 9 7 7 8 5 5 4 4 4 5 6 7 7 6 7 6
9 7 7 6 5 5 5 6 8 10 11 10 8 8 6 5 7 5 4 5 5 5 6 6 5 5 6
5 5 4 4 4 4 5 5 7 7 10 10 9 9 7 6 5 4 5 3 4 6 7 7 6 5 6
6 5 5 6 4 4 4 4 5 7 8 9 8 9 8 6 5 5 4 5 4 3 5 6 5 6 5
7 4 3 3 3 2 2 1 2 4 5 7 9 8 7 4 4 5 4 4 2 2 3 4 3 2 2
9 5 4 3 2 3 4 2 1 2 1 3 5 5 5 4 4 3 3 3 4 2 3 3 3 2 3
9 8 9 7 7 4 3 3 3 1 1 1 3 3 4 3 3 2 1 0 2 4 2 4 7 5 3
Wind_Direction
163 163 164 160 140 126 158 144 157 162 167 157 153 166 172 161 151 132 100 79 73 69 84 101 66 322 301
170 179 178 175 161 151 144 157 174 179 191 188 186 192 201 194 196 154 179 159 65 65 29 20 320 246 291
188 166 194 203 196 187 182 177 185 224 202 190 162 185 236 262 278 280 272 259 264 228 228 312 287 314 302
196 195 206 199 215 208 206 202 221 221 227 250 224 226 250 258 266 271 273 272 240 282 249 214 286 310 295
199 202 204 207 214 217 221 224 230 229 207 213 228 212 229 194 247 224 234 243 272 282 288 288 298 287 290
204 203 207 210 211 217 215 217 223 225 219 228 232 221 219 240 263 267 279 269 259 258 272 283 283 284 284
205 209 211 216 214 228 223 217 222 227 228 227 228 234 240 219 234 227 223 228 255 272 278 275 282 283 282
211 212 214 220 225 227 232 232 224 234 232 225 228 228 246 246 259 240 241 239 236 232 249 245 252 253 255
218 222 226 226 231 235 239 239 238 237 240 234 231 227 230 223 233 241 243 234 241 235 251 247 243 247 247
222 221 223 230 236 243 243 244 239 237 240 243 235 237 240 223 221 222 227 239 253 259 264 264 261 258 257
228 229 228 229 231 238 248 247 245 240 234 236 243 242 232 225 222 228 238 228 258 259 260 261 257 261 261
201 206 215 222 234 240 246 252 255 242 236 232 239 243 222 221 237 201 238 242 267 293 290 286 289 283 266
186 199 222 229 221 231 243 264 265 250 235 229 231 238 226 233 206 208 226 268 287 337 295 286 292 289 304
203 202 215 200 217 248 222 234 297 265 248 229 222 220 209 193 199 208 233 263 262 292 307 307 286 278 160
202 178 164 158 182 194 196 204 15 314 265 180 181 178 176 189 202 205 250 236 260 257 234 278 264 277 331
196 204 209 215 222 210 183 165 152 95 48 80 126 143 145 135 144 136 37 301 252 259 303 252 259 269 285